Regional Weather Roundup
Issued by NWS Newport/Morehead, NC

Current Version | Previous Version | Text Only | Print | Product List | Glossary Off
Versions: 1 2 3 4 5 6 7 8 9 10 11 12 13 14 15 16 17 18 19 20 21 22 23 24 25 26 27 28 29 30 31 32 33 34 35 36 37 38 39 40 41 42 43 44 45 46 47 48 49 50
000 ASUS42 KMHX 201810 RWRMHX WEATHER ROUNDUP FOR EASTERN NORTH CAROLINA NATIONAL WEATHER SERVICE NEWPORT/MOREHEAD CITY NC 200 PM EDT MON OCT 20 2014 NOTE: "FAIR" INDICATES FEW OR NO CLOUDS BELOW 12,000 FEET WITH NO SIGNIFICANT WEATHER AND/OR OBSTRUCTIONS TO VISIBILITY NCZ015>017-031-032-045>047-102-103-201900- NORTH COAST CITY SKY/WX TMP DP RH WIND PRES REMARKS EDENTON SUNNY 68 44 41 SW7 30.08F ELIZABETH CITY MOSUNNY 69 44 40 SW14G22 30.08F KITTY HAWK CLEAR 69 49 49 S5 30.07F MANTEO SUNNY 67 49 53 S13 30.09F $$ NCZ045>047-081-094-103-104-201900- CENTRAL COAST CITY SKY/WX TMP DP RH WIND PRES REMARKS FRISCO SUNNY 67 50 54 VRB3 30.10F SWANQUARTER N/A 68 N/A N/A S6 30.06F $$ NCZ095-097-098-100-101-201900- SOUTHERN COAST CITY SKY/WX TMP DP RH WIND PRES REMARKS BEAUFORT SUNNY 70 52 52 SW7 30.09F CEDAR ISLAND N/A 70 N/A N/A SE10 30.12F JACKSONVILLE MOSUNNY 72 53 51 S10G21 30.07F PINEY ISLAND MOCLDY 71 50 47 CALM 30.08F WILMINGTON MOSUNNY 73 55 53 SE8 30.07F $$ NCZ011>013-027>030-043-044-078>080-089-090>093-098-201900- COASTAL PLAIN CITY SKY/WX TMP DP RH WIND PRES REMARKS AHOSKIE SUNNY 67 46 48 S13 30.07F CLINTON SUNNY 71 53 53 S7 30.07F ELIZABETHTOWN SUNNY 71 51 48 S9 30.07F GOLDSBORO SUNNY 71 54 54 SW15 30.05F GREENVILLE SUNNY 70 48 46 SW9 30.09F HAVELOCK MOSUNNY 72 52 49 S10 30.09F KENANSVILLE MOSUNNY 70 50 47 S3 30.07F KINSTON MOSUNNY 72 48 43 SW8 30.08F NEW BERN MOSUNNY 72 51 47 SW8 30.09F RICHLANDS MOSUNNY 73 52 46 S10 30.08F ROCKY MOUNT SUNNY 69 44 40 S8 30.07F WASHINGTON NOT AVBL WHITEVILLE MOSUNNY 72 53 49 S8 30.06F $$ AMZ130-135-150-152-154-156-158-170-250-252-270-ANZ085-086-088-633-658-670-201900- MARINE OBSERVATIONS STATION/POSITION TIME TEMP WIND PRES WAVE SWELL AIR SEA DIR/SP/G HT/PER HT/PER (UTC) (F) (DEG/KT/KT) (MB) (FT/S) (FT/S) CHESAPEAKE LIGHT 1700 62 190/ 16/ 18 1019.8 64 E VA BEACH 1800 64 69 190/ 10/ 12 1018.8 3/11 2/11 DUCK 1800 64 68 190/ 8/ 10 1018.1 2 E DUCK 1800 N/A 2/12 2/12 10 NE DUCK 1800 71 N/A 3/13 2/13 OREGON INLET 1800 65 67 160/ 5/ 9 1019.1 13E OREGON INLT 1800 74 N/A 3/13 2/13 HATTERAS CG 1800 64 69 350/ 4/ 5 1019.6 DIAMOND BUOY 1800 67 CALM / 2 1019.5 3/ 8 3/ 8 17 S OCRACOKE 1700 VRB 4/ 4 1020.1 CAPE LOOKOUT 1700 67 60/ 4/ 5 1019.8 BEAUFORT LAB 1800 67 68 200/ 6/ 8 1018.3 30 SE NEW RIVER 1700 68 77 50/ 2/ 4 1019.3 5 SE WRIGHTSVLE 1700 67 74 220/ 2/ 2 N/A 225 S CAPE HAT 1703 71 80 90/ 6/ 10 1019.3 4/ 9 3/ 9 41 SE CHARLESTON 1800 73 80 90/ 6/ 10 1017.6 2/ 9 2/ 9 $$

USA.gov is the U.S. government's official web portal to all federal, state and local government web resources and services.